Klawock, AK

9:25 AM AKDT on September 26, 2017 (GMT -0800)
Klawock

Weather History for PAKW - May, 2013

Change the Weather History Date:

Thursday, May 9, 2013

  Actual Average Record
Temperature  
Mean Temperature 52 °F -  
Max Temperature 66 °F 52 °F 79 °F (2005)
Min Temperature 39 °F 36 °F 30 °F (1999)
Degree Days  
Heating Degree Days 12    
Growing Degree Days 2 (Base 50)    
Moisture  
Dew Point 42 °F    
Average Humidity 81    
Maximum Humidity 100    
Minimum Humidity 40    
Precipitation  
Precipitation 0.00 in - - ()
Sea Level Pressure  
Sea Level Pressure 30.20 in    
Wind  
Wind Speed 2 mph (SW)    
Max Wind Speed 9 mph    
Max Gust Speed -    
Visibility 7 miles    
Events      
Averages and records for this station are not official NWS values.
T = Trace of Precipitation, MM = Missing Value Source: NWS Daily Summary

Daily Weather History Graph

Daily Weather History Graph

Search for Another Location

Airport or City:

Trip Planner

Search our weather history database for the weather conditions in past years. The results will help you decide how hot, cold, wet, or windy it might be!

Date:

Astronomy

May. 09, 2013 Rise Set
Actual Time 4:52 AM AKDT 8:46 PM AKDT
Civil Twilight 4:05 AM AKDT 9:33 PM AKDT
Nautical Twilight 2:58 AM AKDT 10:42 PM AKDT
Astronomical Twilight 1:21 AM AKDT 12:16 AM AKDT
Moon 4:46 AM AKDT (5/9) 8:48 PM AKDT (5/9)
Length of Visible Light 17h 28m
Length of Day
15h 54m
Waning Crescent, 0% of the Moon is Illuminated
May 9
Waning Crescent
May 9
New
May 17
First Quarter
May 24
Full
May 31
Last Quarter

Hourly Weather History & Observations

Time (AKDT) Temp. Windchill Dew Point Humidity Pressure Visibility Wind Dir Wind Speed Gust Speed Precip Events Conditions
12:53 AM 42.1 °F - 39.0 °F 89% 30.17 in 10.0 mi Calm Calm - N/A   Clear
1:53 AM 42.1 °F - 37.9 °F 85% 30.17 in 9.0 mi Calm Calm - N/A   Clear
2:53 AM 39.9 °F - 37.0 °F 89% 30.17 in 9.0 mi Calm Calm - N/A   Clear
3:53 AM 39.9 °F - 37.0 °F 89% 30.17 in 10.0 mi Calm Calm - N/A   Clear
4:53 AM 39.0 °F - 36.0 °F 89% 30.18 in 10.0 mi Calm Calm - N/A   Clear
5:53 AM 41.0 °F - 37.9 °F 89% 30.19 in 10.0 mi Calm Calm - N/A   Clear
6:53 AM 46.9 °F - 42.1 °F 83% 30.19 in 10.0 mi Calm Calm - N/A   Clear
7:53 AM 53.1 °F - 41.0 °F 64% 30.19 in 10.0 mi Calm Calm - N/A   Clear
9:53 AM 62.1 °F - 39.9 °F 44% 30.20 in 10.0 mi WSW 3.5 mph - N/A   Clear
10:53 AM 62.1 °F - 41.0 °F 46% 30.20 in 10.0 mi WSW 6.9 mph - N/A   Clear
11:53 AM 66.9 °F - 42.1 °F 40% 30.20 in 10.0 mi SW 8.1 mph - N/A   Clear
12:53 PM 62.1 °F - 42.1 °F 48% 30.21 in 10.0 mi SSW 5.8 mph - N/A   Clear
1:53 PM 60.1 °F - 43.0 °F 53% 30.22 in 10.0 mi SW 4.6 mph - N/A   Clear
2:53 PM 57.9 °F - 44.1 °F 60% 30.22 in 10.0 mi SSW 9.2 mph - N/A   Clear
3:53 PM 57.9 °F - 44.1 °F 60% 30.21 in 10.0 mi SSW 8.1 mph - N/A   Clear
4:53 PM 55.0 °F - 44.1 °F 67% 30.21 in 10.0 mi SSW 4.6 mph - N/A   Clear
5:53 PM 55.0 °F - 45.0 °F 69% 30.20 in 10.0 mi SSW 4.6 mph - N/A   Clear
6:53 PM 50.0 °F - 45.0 °F 83% 30.20 in 10.0 mi WSW 5.8 mph - N/A   Clear
7:53 PM 48.9 °F - 44.1 °F 83% 30.21 in 10.0 mi South 3.5 mph - N/A   Clear
8:53 PM 46.0 °F - 43.0 °F 89% 30.21 in 10.0 mi Calm Calm - N/A   Clear
9:16 PM 44.6 °F - 42.8 °F 93% 30.21 in 10.0 mi Calm Calm - N/A   Scattered Clouds
9:29 PM 44.6 °F - 42.8 °F 93% 30.21 in 9.0 mi Calm Calm - N/A   Mostly Cloudy
9:46 PM 44.6 °F 43.1 °F 42.8 °F 93% 30.21 in 1.8 mi SSW 3.5 mph - N/A   Overcast
9:53 PM 45.0 °F 43.5 °F 43.0 °F 93% 30.21 in 2.5 mi SSW 3.5 mph - N/A   Overcast
10:02 PM 44.6 °F 43.1 °F 44.6 °F 100% 30.21 in 1.2 mi SSW 3.5 mph - N/A   Overcast
10:15 PM 44.6 °F - 44.6 °F 100% 30.22 in 0.8 mi Calm Calm - N/A   Mist
10:31 PM 44.6 °F 42.2 °F 44.6 °F 100% 30.22 in 1.0 mi SSW 4.6 mph - N/A   Mist
10:48 PM 44.6 °F 43.1 °F 44.6 °F 100% 30.22 in 2.0 mi SSW 3.5 mph - N/A   Overcast
10:53 PM 45.0 °F 42.6 °F 43.0 °F 93% 30.22 in 2.5 mi SW 4.6 mph - N/A   Overcast
11:04 PM 44.6 °F 43.1 °F 42.8 °F 93% 30.22 in 1.5 mi SW 3.5 mph - N/A   Overcast
11:31 PM 44.6 °F - 44.6 °F 100% 30.22 in 1.2 mi Calm Calm - N/A   Overcast
11:42 PM 44.6 °F - 42.8 °F 93% 30.22 in 0.8 mi Calm Calm - N/A   Mist
11:53 PM 44.1 °F 42.5 °F 44.1 °F 100% 30.22 in 0.8 mi West 3.5 mph - N/A   Mist